Weather History for Mount Airy, NC

Change the Weather History Date:

Friday, January 3, 2014

  Actual Average (KINT) Record (KINT)
Temperature  
Mean Temperature 24 °F -  
Max Temperature 30 °F 49 °F 72 °F (2004)
Min Temperature 18 °F 32 °F 6 °F (1979)
Degree Days  
Heating Degree Days 40    
Moisture  
Dew Point 5 °F    
Average Humidity 47    
Maximum Humidity 77    
Minimum Humidity 25    
Precipitation  
Precipitation 0.00 in - - ()
Sea Level Pressure  
Sea Level Pressure 30.20 in    
Wind  
Wind Speed 11 mph (NW)    
Max Wind Speed 23 mph    
Max Gust Speed 34 mph    
Visibility 10 miles    
Events      
Averages and records for this station are not official NWS values.
T = Trace of Precipitation, MM = Missing Value Source: NWS Daily Summary

Daily Weather History Graph

Daily Weather History Graph

Search for Another Location

Airport:

Trip Planner

Search our weather history database for the weather conditions in past years. The results will help you decide how hot, cold, wet, or windy it might be!

Date:

Astronomy

Jan. 03, 2014 Rise Set
Actual Time 7:34 AM EST 5:19 PM EST
Civil Twilight 7:05 AM EST 5:47 PM EST
Nautical Twilight 6:33 AM EST 6:20 PM EST
Astronomical Twilight 6:02 AM EST 6:51 PM EST
Moon 9:04 AM EST (1/3) 8:21 PM EST (1/3)
Length of Visible Light 10h 42m
Length of Day
9h 45m
Waxing Crescent, 8% of the Moon is Illuminated
Jan 3
Waxing Crescent
Jan 7
First Quarter
Jan 15
Full
Jan 24
Last Quarter
Jan 30
New

Hourly Weather History & Observations

Time (EST) Temp. Windchill Dew Point Humidity Pressure Visibility Wind Dir Wind Speed Gust Speed Precip Events Conditions
12:15 AM 31.1 °F 21.9 °F 18.3 °F 59% 29.76 in 10.0 mi WNW 11.5 mph 24.2 mph N/A   Scattered Clouds
12:35 AM 29.7 °F 18.2 °F 16.2 °F 57% 29.79 in 10.0 mi NW 16.1 mph 25.3 mph N/A   Scattered Clouds
12:55 AM 28.4 °F 17.5 °F 15.3 °F 58% 29.80 in 10.0 mi WNW 13.8 mph 26.5 mph N/A   Scattered Clouds
1:15 AM 26.6 °F 13.4 °F 11.1 °F 52% 29.82 in 10.0 mi NW 18.4 mph 29.9 mph N/A   Clear
1:35 AM 25.9 °F 14.8 °F 11.7 °F 55% 29.83 in 10.0 mi WNW 12.7 mph 27.6 mph N/A   Clear
1:55 AM 25.3 °F 12.6 °F 11.3 °F 55% 29.85 in 10.0 mi NW 16.1 mph 29.9 mph N/A   Clear
2:15 AM 24.6 °F 10.5 °F 10.2 °F 54% 29.88 in 10.0 mi WNW 19.6 mph 26.5 mph N/A   Clear
2:35 AM 23.9 °F 11.2 °F 9.9 °F 55% 29.89 in 10.0 mi NW 15.0 mph 23.0 mph N/A   Clear
2:55 AM 23.5 °F 11.3 °F 9.1 °F 54% 29.91 in 10.0 mi WNW 13.8 mph 20.7 mph N/A   Scattered Clouds
3:15 AM 22.3 °F 8.7 °F 7.5 °F 53% 29.93 in 10.0 mi WNW 16.1 mph 26.5 mph N/A   Scattered Clouds
3:35 AM 22.1 °F 11.3 °F 6.8 °F 52% 29.96 in 10.0 mi NW 10.4 mph 20.7 mph N/A   Clear
3:55 AM 21.9 °F 11.7 °F 5.5 °F 49% 29.98 in 10.0 mi WNW 9.2 mph 34.5 mph N/A   Scattered Clouds
4:15 AM 21.2 °F 8.9 °F 6.3 °F 53% 29.99 in 10.0 mi NW 12.7 mph 19.6 mph N/A   Scattered Clouds
4:35 AM 20.7 °F 8.2 °F 6.1 °F 53% 29.98 in 10.0 mi WNW 12.7 mph 24.2 mph N/A   Clear
4:55 AM 20.3 °F 7.7 °F 6.3 °F 55% 30.00 in 10.0 mi WNW 12.7 mph 33.4 mph N/A   Clear
5:15 AM 19.9 °F 6.7 °F 5.4 °F 53% 30.01 in 10.0 mi NW 13.8 mph 26.5 mph N/A   Clear
5:35 AM 19.9 °F 7.3 °F 4.8 °F 52% 30.04 in 10.0 mi NW 12.7 mph 26.5 mph N/A   Clear
5:55 AM 19.4 °F 3.2 °F 4.3 °F 52% 30.06 in 10.0 mi NW 20.7 mph 31.1 mph N/A   Clear
6:15 AM 19.4 °F 2.5 °F 4.3 °F 52% 30.08 in 10.0 mi NW 23.0 mph 29.9 mph N/A   Clear
6:35 AM 19.2 °F 4.7 °F 4.5 °F 53% 30.09 in 10.0 mi NW 16.1 mph 29.9 mph N/A   Clear
6:55 AM 19.0 °F 5.0 °F 4.8 °F 54% 30.11 in 10.0 mi NNW 15.0 mph 24.2 mph N/A   Clear
7:15 AM 18.5 °F 5.5 °F 4.6 °F 55% 30.13 in 10.0 mi NW 12.7 mph 19.6 mph N/A   Clear
7:35 AM 18.5 °F 6.1 °F 4.6 °F 55% 30.16 in 10.0 mi NW 11.5 mph 20.7 mph N/A   Clear
7:55 AM 18.5 °F 8.4 °F 5.0 °F 56% 30.17 in 10.0 mi NW 8.1 mph - N/A   Clear
8:15 AM 19.4 °F 7.2 °F 4.5 °F 52% 30.17 in 10.0 mi NNW 11.5 mph 18.4 mph N/A   Clear
8:35 AM 20.1 °F 10.3 °F 5.0 °F 52% 30.19 in 10.0 mi NNW 8.1 mph 20.7 mph N/A   Clear
8:55 AM 20.3 °F 6.6 °F 4.8 °F 51% 30.19 in 10.0 mi North 15.0 mph 25.3 mph N/A   Clear
9:15 AM 21.2 °F 10.9 °F 5.4 °F 51% 30.20 in 10.0 mi NNW 9.2 mph - N/A   Clear
9:35 AM 22.1 °F 12.8 °F 5.4 °F 49% 30.23 in 10.0 mi North 8.1 mph - N/A   Clear
9:55 AM 22.6 °F 12.6 °F 5.5 °F 48% 30.25 in 10.0 mi North 9.2 mph 17.3 mph N/A   Clear
10:15 AM 23.4 °F 11.6 °F 5.2 °F 46% 30.25 in 10.0 mi North 12.7 mph 19.6 mph N/A   Clear
10:35 AM 24.6 °F 13.2 °F 5.7 °F 45% 30.26 in 10.0 mi NW 12.7 mph 18.4 mph N/A   Clear
10:55 AM 24.1 °F 12.5 °F 4.3 °F 43% 30.27 in 10.0 mi NW 12.7 mph 17.3 mph N/A   Clear
11:15 AM 25.7 °F 16.4 °F 4.8 °F 41% 30.29 in 10.0 mi North 9.2 mph - N/A   Clear
11:35 AM 25.7 °F 15.7 °F 3.4 °F 38% 30.29 in 10.0 mi NNW 10.4 mph 16.1 mph N/A   Clear
11:55 AM 26.4 °F 14.0 °F 3.6 °F 38% 30.27 in 10.0 mi NW 16.1 mph 23.0 mph N/A   Clear
12:15 PM 26.4 °F 17.3 °F 2.7 °F 36% 30.28 in 10.0 mi WNW 9.2 mph - N/A   Clear
12:35 PM 27.1 °F 20.7 °F 3.0 °F 36% 30.28 in 10.0 mi WNW 5.8 mph 25.3 mph N/A   Clear
12:55 PM 27.9 °F 16.8 °F 2.1 °F 33% 30.29 in 10.0 mi NW 13.8 mph 19.6 mph N/A   Clear
1:15 PM 28.2 °F 19.5 °F 2.1 °F 33% 30.29 in 10.0 mi WNW 9.2 mph - N/A   Clear
1:35 PM 28.9 °F 19.8 °F 1.6 °F 31% 30.28 in 10.0 mi NW 10.4 mph 17.3 mph N/A   Clear
1:55 PM 29.7 °F 20.7 °F 1.9 °F 31% 30.28 in 10.0 mi WNW 10.4 mph - N/A   Clear
2:15 PM 29.7 °F 22.8 °F 1.6 °F 30% 30.28 in 10.0 mi NW 6.9 mph 19.6 mph N/A   Clear
2:35 PM 29.8 °F 20.9 °F -0.2 °F 28% 30.29 in 10.0 mi NNW 10.4 mph - N/A   Clear
2:55 PM 30.0 °F 23.2 °F -1.7 °F 26% 30.29 in 10.0 mi North 6.9 mph - N/A   Clear
3:15 PM 30.0 °F 21.7 °F -2.0 °F 25% 30.29 in 10.0 mi North 9.2 mph - N/A   Clear
3:35 PM 30.2 °F 21.9 °F -1.5 °F 26% 30.29 in 10.0 mi NW 9.2 mph - N/A   Clear
3:55 PM 30.4 °F 25.6 °F -0.0 °F 27% 30.30 in 10.0 mi NNW 4.6 mph - N/A   Clear
4:15 PM 29.7 °F 20.7 °F 0.3 °F 28% 30.30 in 10.0 mi NW 10.4 mph - N/A   Clear
4:35 PM 28.9 °F 21.9 °F -1.8 °F 27% 30.31 in 10.0 mi NNW 6.9 mph - N/A   Clear
4:55 PM 28.4 °F - -0.6 °F 29% 30.32 in 10.0 mi Calm Calm - N/A   Clear
5:15 PM 27.7 °F 19.6 °F 2.7 °F 34% 30.32 in 10.0 mi NW 8.1 mph - N/A   Clear
5:35 PM 27.1 °F 20.7 °F 3.7 °F 37% 30.32 in 10.0 mi NNW 5.8 mph - N/A   Clear
5:55 PM 26.6 °F 21.2 °F 3.4 °F 37% 30.33 in 10.0 mi NW 4.6 mph - N/A   Clear
6:15 PM 26.2 °F - 2.5 °F 36% 30.34 in 10.0 mi Calm Calm - N/A   Clear
6:35 PM 25.7 °F 21.5 °F 2.7 °F 37% 30.35 in 10.0 mi North 3.5 mph - N/A   Clear
6:55 PM 25.0 °F - 3.4 °F 40% 30.35 in 10.0 mi Calm Calm - N/A   Clear
7:15 PM 24.6 °F 20.3 °F 3.2 °F 40% 30.34 in 10.0 mi NNE 3.5 mph - N/A   Clear
7:35 PM 24.1 °F 19.7 °F 3.6 °F 41% 30.35 in 10.0 mi NNW 3.5 mph - N/A   Clear
7:55 PM 23.5 °F 19.1 °F 4.3 °F 44% 30.35 in 10.0 mi NNW 3.5 mph - N/A   Clear
8:15 PM 23.0 °F - 4.8 °F 46% 30.36 in 10.0 mi Calm Calm - N/A   Clear
8:35 PM 23.4 °F - 4.8 °F 45% 30.36 in 10.0 mi Calm Calm - N/A   Clear
8:55 PM 21.6 °F 16.8 °F 7.0 °F 54% 30.37 in 10.0 mi NNW 3.5 mph - N/A   Clear
9:15 PM 21.0 °F - 8.1 °F 57% 30.38 in 10.0 mi Calm Calm - N/A   Clear
9:35 PM 20.1 °F - 9.1 °F 62% 30.38 in 10.0 mi Calm Calm - N/A   Clear
9:55 PM 21.0 °F - 7.2 °F 55% 30.38 in 10.0 mi Calm Calm - N/A   Clear
10:15 PM 21.9 °F - 6.6 °F 52% 30.39 in 10.0 mi Calm Calm - N/A   Clear
10:35 PM 19.2 °F - 10.4 °F 69% 30.39 in 10.0 mi Calm Calm - N/A   Clear
10:55 PM 20.3 °F - 8.2 °F 60% 30.40 in 10.0 mi Calm Calm - N/A   Clear
11:15 PM 18.5 °F - 11.3 °F 73% 30.40 in 10.0 mi Calm Calm - N/A   Clear
11:35 PM 18.1 °F - 11.7 °F 76% 30.41 in 10.0 mi Calm Calm - N/A   Clear
11:55 PM 18.0 °F - 11.8 °F 77% 30.40 in 10.0 mi Calm Calm - N/A   Clear